TimeCDT,TemperatureF,Dew PointF,Humidity,Sea Level PressureIn,VisibilityMPH,Wind Direction,Wind SpeedMPH,Gust SpeedMPH,PrecipitationIn,Events,Conditions,WindDirDegrees,DateUTC
12:15 AM,37.9,32.0,79,30.31,10.0,Calm,Calm,-,N/A,,Overcast,0,2013-03-29 05:15:00
12:35 AM,37.8,31.8,79,30.30,10.0,Calm,Calm,-,N/A,,Overcast,0,2013-03-29 05:35:00
12:55 AM,38.8,32.0,76,30.30,10.0,Calm,Calm,-,N/A,,Overcast,0,2013-03-29 05:55:00
1:15 AM,38.3,32.0,78,30.30,10.0,Calm,Calm,-,N/A,,Overcast,0,2013-03-29 06:15:00
1:35 AM,38.3,32.0,78,30.30,10.0,Calm,Calm,-,N/A,,Overcast,0,2013-03-29 06:35:00
1:55 AM,38.3,32.0,78,30.30,10.0,NE,4.6,-,N/A,,Overcast,50,2013-03-29 06:55:00
2:15 AM,36.9,31.3,80,30.30,10.0,NE,4.6,-,N/A,,Overcast,50,2013-03-29 07:15:00
2:35 AM,35.6,32.0,87,30.29,10.0,ENE,3.5,-,N/A,,Overcast,60,2013-03-29 07:35:00
2:55 AM,36.3,31.1,81,30.29,10.0,Calm,Calm,-,N/A,,Overcast,0,2013-03-29 07:55:00
3:15 AM,36.7,31.5,81,30.29,10.0,East,5.8,-,N/A,,Overcast,80,2013-03-29 08:15:00
3:35 AM,37.4,30.2,75,30.29,10.0,Calm,Calm,-,N/A,,Overcast,0,2013-03-29 08:35:00
3:55 AM,36.9,30.7,79,30.29,10.0,Calm,Calm,-,N/A,,Overcast,0,2013-03-29 08:55:00
4:15 AM,36.9,30.9,79,30.28,10.0,Calm,Calm,-,N/A,,Overcast,0,2013-03-29 09:15:00
4:35 AM,36.5,30.7,80,30.28,10.0,Calm,Calm,-,N/A,,Overcast,0,2013-03-29 09:35:00
4:55 AM,35.6,30.9,83,30.28,10.0,NE,5.8,-,N/A,,Overcast,40,2013-03-29 09:55:00
5:35 AM,35.6,30.0,80,30.28,10.0,NE,5.8,-,N/A,,Overcast,50,2013-03-29 10:35:00
5:55 AM,34.9,29.5,81,30.29,10.0,NE,6.9,-,N/A,,Overcast,50,2013-03-29 10:55:00
6:15 AM,34.7,29.5,81,30.29,10.0,ENE,4.6,-,N/A,,Overcast,60,2013-03-29 11:15:00
6:35 AM,34.5,29.8,83,30.29,10.0,ENE,4.6,-,N/A,,Overcast,60,2013-03-29 11:35:00
6:55 AM,34.3,29.7,83,30.30,10.0,ENE,5.8,-,N/A,,Overcast,60,2013-03-29 11:55:00
7:15 AM,34.9,29.3,80,30.30,10.0,East,3.5,-,N/A,,Overcast,90,2013-03-29 12:15:00
7:35 AM,35.2,31.1,85,30.30,10.0,Calm,Calm,-,N/A,,Overcast,0,2013-03-29 12:35:00
8:15 AM,37.2,29.8,75,30.31,10.0,East,3.5,-,N/A,,Mostly Cloudy,90,2013-03-29 13:15:00
8:35 AM,39.6,29.8,68,30.31,10.0,Calm,Calm,-,N/A,,Mostly Cloudy,0,2013-03-29 13:35:00
8:55 AM,41.9,31.1,66,30.32,10.0,Calm,Calm,-,N/A,,Scattered Clouds,0,2013-03-29 13:55:00
9:15 AM,42.4,31.3,65,30.32,10.0,Calm,Calm,-,N/A,,Scattered Clouds,0,2013-03-29 14:15:00
9:35 AM,45.0,30.9,58,30.32,10.0,Calm,Calm,-,N/A,,Scattered Clouds,0,2013-03-29 14:35:00
9:55 AM,46.2,31.3,56,30.31,10.0,ESE,3.5,-,N/A,,Scattered Clouds,110,2013-03-29 14:55:00
10:15 AM,47.7,31.8,54,30.32,10.0,Calm,Calm,-,N/A,,Scattered Clouds,0,2013-03-29 15:15:00
10:35 AM,48.6,31.1,51,30.31,10.0,ESE,3.5,-,N/A,,Scattered Clouds,110,2013-03-29 15:35:00
10:55 AM,48.6,31.3,51,30.32,10.0,South,3.5,-,N/A,,Mostly Cloudy,180,2013-03-29 15:55:00
11:15 AM,49.5,30.9,49,30.31,10.0,Calm,Calm,-,N/A,,Scattered Clouds,0,2013-03-29 16:15:00
11:55 AM,51.4,32.0,47,30.30,10.0,SE,4.6,-,N/A,,Clear,130,2013-03-29 16:55:00
12:15 PM,51.1,31.8,48,30.30,10.0,Calm,Calm,-,N/A,,Mostly Cloudy,0,2013-03-29 17:15:00
12:35 PM,52.2,32.0,46,30.29,10.0,Calm,Calm,-,N/A,,Scattered Clouds,0,2013-03-29 17:35:00
12:55 PM,51.3,31.3,46,30.29,10.0,Calm,Calm,-,N/A,,Scattered Clouds,0,2013-03-29 17:55:00
1:15 PM,53.6,31.3,43,30.28,10.0,SW,3.5,-,N/A,,Scattered Clouds,230,2013-03-29 18:15:00
1:35 PM,54.0,32.0,43,30.27,10.0,West,6.9,-,N/A,,Mostly Cloudy,270,2013-03-29 18:35:00
1:55 PM,52.5,32.2,46,30.27,10.0,NE,5.8,-,N/A,,Scattered Clouds,50,2013-03-29 18:55:00
2:15 PM,52.2,31.6,46,30.26,10.0,Calm,Calm,-,N/A,,Clear,0,2013-03-29 19:15:00
2:35 PM,52.3,30.6,43,30.25,10.0,Calm,Calm,-,N/A,,Mostly Cloudy,0,2013-03-29 19:35:00
2:55 PM,53.1,31.6,44,30.25,10.0,Calm,Calm,-,N/A,,Scattered Clouds,0,2013-03-29 19:55:00
3:35 PM,54.7,32.0,42,30.24,10.0,ENE,4.6,-,N/A,,Scattered Clouds,60,2013-03-29 20:35:00
3:55 PM,54.7,30.9,40,30.23,10.0,Calm,Calm,-,N/A,,Scattered Clouds,0,2013-03-29 20:55:00
4:15 PM,54.7,31.6,42,30.23,10.0,NW,6.9,-,N/A,,Scattered Clouds,310,2013-03-29 21:15:00
4:35 PM,54.7,31.3,41,30.23,10.0,WNW,4.6,-,N/A,,Scattered Clouds,300,2013-03-29 21:35:00
4:55 PM,54.3,31.3,42,30.22,10.0,Calm,Calm,-,N/A,,Clear,0,2013-03-29 21:55:00
5:15 PM,54.5,30.4,40,30.22,10.0,Calm,Calm,-,N/A,,Scattered Clouds,0,2013-03-29 22:15:00
5:35 PM,54.7,30.7,40,30.22,10.0,WNW,3.5,-,N/A,,Scattered Clouds,290,2013-03-29 22:35:00
5:55 PM,53.6,30.9,42,30.21,10.0,ENE,4.6,-,N/A,,Clear,70,2013-03-29 22:55:00
6:15 PM,53.2,31.3,43,30.22,10.0,West,6.9,-,N/A,,Clear,280,2013-03-29 23:15:00
6:35 PM,52.3,33.1,48,30.22,10.0,West,5.8,-,N/A,,Clear,280,2013-03-29 23:35:00
6:55 PM,50.9,34.9,54,30.22,10.0,ENE,5.8,-,N/A,,Clear,60,2013-03-29 23:55:00
7:15 PM,48.6,35.4,60,30.22,10.0,ENE,4.6,-,N/A,,Clear,60,2013-03-30 00:15:00
7:35 PM,48.2,33.8,58,30.22,10.0,NE,3.5,-,N/A,,Clear,50,2013-03-30 00:35:00
7:55 PM,45.0,32.5,62,30.22,10.0,NE,4.6,-,N/A,,Clear,40,2013-03-30 00:55:00
8:15 PM,46.4,32.2,58,30.22,10.0,ENE,4.6,-,N/A,,Clear,60,2013-03-30 01:15:00
8:35 PM,44.6,32.0,61,30.23,10.0,ENE,4.6,-,N/A,,Clear,70,2013-03-30 01:35:00
9:15 PM,45.1,31.1,58,30.24,10.0,East,4.6,-,N/A,,Clear,80,2013-03-30 02:15:00
9:55 PM,42.1,30.6,64,30.24,10.0,East,5.8,-,N/A,,Clear,80,2013-03-30 02:55:00
10:15 PM,39.7,30.7,70,30.24,10.0,ENE,4.6,-,N/A,,Clear,70,2013-03-30 03:15:00
10:35 PM,41.4,30.7,66,30.24,10.0,East,5.8,-,N/A,,Clear,80,2013-03-30 03:35:00
10:55 PM,40.1,30.6,69,30.24,10.0,ENE,4.6,-,N/A,,Clear,60,2013-03-30 03:55:00
11:15 PM,39.6,30.7,71,30.24,10.0,NE,6.9,-,N/A,,Clear,50,2013-03-30 04:15:00
11:35 PM,39.6,30.0,69,30.23,10.0,East,9.2,-,N/A,,Clear,80,2013-03-30 04:35:00
11:55 PM,37.6,29.3,72,30.23,10.0,East,6.9,-,N/A,,Clear,100,2013-03-30 04:55:00